When you browse on this site, cookies collect data to enhance your experience and personalize the content and advertising you see.
Visit our Privacy Policy to learn more. By continuing to use the site, you agree to this use of cookies and data.
  • In Hungary
  • List of Countries
  • For 7 days
  • Water Temperature
  • Weather Map
  • News
  • Weather Widgets
  • user-avatar
    Login

    Hourly Weather Latno

    Today, 18 September, Wednesday

    Time Temperature Precipitation Wind Pressure Humidity
    00:00 +8°C° 0.3 mm 9 mps 754 mmHg 77%
    01:00 +9°C° 0.3 mm 8 mps 755 mmHg 79%
    02:00 +9°C° 0 mm 8 mps 756 mmHg 78%
    03:00 +8°C° 0 mm 7 mps 756 mmHg 77%
    04:00 +8°C° 0 mm 7 mps 757 mmHg 77%
    05:00 +9°C° 0.2 mm 7 mps 757 mmHg 76%
    06:00 +9°C° 0.2 mm 7 mps 758 mmHg 76%
    07:00 +9°C° 0.2 mm 7 mps 758 mmHg 76%
    08:00 +10°C° 0.3 mm 7 mps 758 mmHg 73%
    09:00 +11°C° 0.3 mm 8 mps 759 mmHg 71%
    10:00 +12°C° 0.3 mm 8 mps 759 mmHg 69%
    11:00 +12°C° 0.2 mm 8 mps 759 mmHg 68%
    12:00 +13°C° 0.2 mm 8 mps 759 mmHg 67%
    13:00 +13°C° 0.2 mm 8 mps 760 mmHg 66%
    14:00 +12°C° 0.2 mm 8 mps 760 mmHg 67%
    15:00 +12°C° 0.2 mm 8 mps 760 mmHg 68%
    16:00 +12°C° 0.2 mm 8 mps 760 mmHg 69%
    17:00 +11°C° 0.4 mm 8 mps 760 mmHg 71%
    18:00 +10°C° 0.4 mm 7 mps 760 mmHg 73%
    19:00 +10°C° 0.4 mm 6 mps 760 mmHg 75%
    20:00 +9°C° 0.4 mm 6 mps 761 mmHg 76%
    21:00 +9°C° 0.4 mm 5 mps 761 mmHg 76%
    22:00 +8°C° 0.4 mm 4 mps 762 mmHg 77%
    23:00 +8°C° 0.3 mm 4 mps 762 mmHg 80%

    Tomorrow, 19 September, Thursday

    Time Temperature Precipitation Wind Pressure Humidity
    00:00 +8°C° 0.3 mm 4 mps 762 mmHg 83%
    01:00 +9°C° 0.3 mm 3 mps 762 mmHg 85%
    02:00 +9°C° 0.2 mm 3 mps 762 mmHg 85%
    03:00 +9°C° 0.2 mm 3 mps 763 mmHg 85%
    04:00 +8°C° 0.2 mm 3 mps 763 mmHg 85%
    05:00 +9°C° 0.1 mm 3 mps 763 mmHg 83%
    06:00 +10°C° 0.1 mm 3 mps 763 mmHg 81%
    07:00 +10°C° 0.1 mm 3 mps 764 mmHg 79%
    08:00 +11°C° 0.1 mm 4 mps 764 mmHg 71%
    09:00 +13°C° 0.1 mm 4 mps 765 mmHg 62%
    10:00 +14°C° 0.1 mm 4 mps 765 mmHg 54%
    11:00 +14°C° 0 mm 4 mps 765 mmHg 52%
    12:00 +15°C° 0 mm 4 mps 765 mmHg 50%
    13:00 +15°C° 0 mm 4 mps 765 mmHg 48%
    14:00 +15°C° 0 mm 4 mps 765 mmHg 53%
    15:00 +14°C° 0 mm 4 mps 765 mmHg 58%
    16:00 +13°C° 0 mm 4 mps 765 mmHg 62%
    17:00 +12°C° 0 mm 4 mps 765 mmHg 68%
    18:00 +11°C° 0 mm 4 mps 765 mmHg 75%
    19:00 +10°C° 0 mm 3 mps 765 mmHg 81%
    20:00 +10°C° 0 mm 3 mps 766 mmHg 82%
    21:00 +9°C° 0 mm 3 mps 766 mmHg 83%
    22:00 +9°C° 0 mm 3 mps 766 mmHg 85%
    23:00 +9°C° 0.1 mm 3 mps 766 mmHg 85%

    Day after tomorrow, 20 September, Friday

    Time Temperature Precipitation Wind Pressure Humidity
    00:00 +8°C° 0.1 mm 3 mps 766 mmHg 85%
    01:00 +8°C° 0.1 mm 3 mps 766 mmHg 86%
    02:00 +8°C° 0 mm 2 mps 766 mmHg 87%
    03:00 +8°C° 0 mm 2 mps 766 mmHg 88%
    04:00 +8°C° 0 mm 2 mps 766 mmHg 89%
    05:00 +8°C° 0 mm 2 mps 766 mmHg 88%
    06:00 +9°C° 0 mm 2 mps 766 mmHg 87%
    07:00 +9°C° 0 mm 2 mps 766 mmHg 87%
    08:00 +12°C° 0 mm 1 mps 766 mmHg 79%
    09:00 +13°C° 0 mm 1 mps 767 mmHg 72%
    10:00 +15°C° 0 mm 1 mps 767 mmHg 65%
    11:00 +16°C° 0.1 mm 1 mps 767 mmHg 61%
    12:00 +16°C° 0.1 mm 1 mps 767 mmHg 58%
    13:00 +16°C° 0.1 mm 2 mps 767 mmHg 55%
    14:00 +16°C° 0 mm 2 mps 767 mmHg 58%
    15:00 +16°C° 0 mm 2 mps 766 mmHg 60%
    16:00 +15°C° 0 mm 2 mps 766 mmHg 63%
    17:00 +14°C° 0 mm 1 mps 766 mmHg 68%
    18:00 +12°C° 0 mm 1 mps 766 mmHg 73%
    19:00 +11°C° 0 mm 1 mps 767 mmHg 78%
    20:00 +11°C° 0 mm 1 mps 767 mmHg 79%
    21:00 +10°C° 0 mm 1 mps 767 mmHg 80%
    22:00 +10°C° 0 mm 1 mps 767 mmHg 81%
    23:00 +9°C° 0 mm 2 mps 767 mmHg 83%

    21 September, Saturday

    Time Temperature Precipitation Wind Pressure Humidity
    00:00 +9°C° 0 mm 2 mps 767 mmHg 85%
    01:00 +8°C° 0 mm 2 mps 767 mmHg 88%
    02:00 +8°C° 0 mm 3 mps 767 mmHg 89%
    03:00 +8°C° 0 mm 3 mps 767 mmHg 90%
    04:00 +8°C° 0 mm 3 mps 766 mmHg 91%
    05:00 +8°C° 0 mm 3 mps 766 mmHg 89%
    06:00 +9°C° 0 mm 3 mps 766 mmHg 87%
    07:00 +9°C° 0 mm 3 mps 766 mmHg 86%
    08:00 +11°C° 0 mm 3 mps 766 mmHg 78%
    09:00 +13°C° 0 mm 3 mps 766 mmHg 69%
    10:00 +16°C° 0 mm 3 mps 767 mmHg 61%
    11:00 +17°C° 0 mm 3 mps 766 mmHg 57%
    12:00 +17°C° 0 mm 3 mps 766 mmHg 53%
    13:00 +18°C° 0 mm 3 mps 766 mmHg 50%
    14:00 +18°C° 0 mm 2 mps 765 mmHg 50%
    15:00 +18°C° 0 mm 2 mps 765 mmHg 51%
    16:00 +18°C° 0 mm 2 mps 764 mmHg 52%
    17:00 +17°C° 0 mm 2 mps 764 mmHg 56%
    18:00 +15°C° 0 mm 2 mps 764 mmHg 61%
    19:00 +13°C° 0 mm 2 mps 764 mmHg 66%
    20:00 +13°C° 0 mm 2 mps 764 mmHg 66%
    21:00 +11°C° 0 mm 3 mps 764 mmHg 66%
    22:00 +11°C° 0 mm 3 mps 764 mmHg 66%
    23:00 +10°C° 0 mm 3 mps 764 mmHg 67%

    22 September, Sunday

    Time Temperature Precipitation Wind Pressure Humidity
    00:00 +10°C° 0 mm 3 mps 763 mmHg 67%
    01:00 +10°C° 0 mm 3 mps 763 mmHg 68%
    02:00 +10°C° 0 mm 3 mps 763 mmHg 69%
    03:00 +8°C° 0 mm 4 mps 762 mmHg 70%
    04:00 +8°C° 0 mm 4 mps 762 mmHg 71%
    05:00 +8°C° 0 mm 4 mps 762 mmHg 70%
    06:00 +10°C° 0 mm 4 mps 761 mmHg 70%
    07:00 +10°C° 0 mm 4 mps 761 mmHg 69%
    08:00 +12°C° 0 mm 5 mps 761 mmHg 63%
    09:00 +15°C° 0 mm 5 mps 761 mmHg 56%
    10:00 +17°C° 0 mm 5 mps 761 mmHg 49%
    11:00 +19°C° 0 mm 5 mps 760 mmHg 47%
    12:00 +20°C° 0 mm 5 mps 759 mmHg 45%
    13:00 +21°C° 0 mm 5 mps 759 mmHg 43%
    14:00 +21°C° 0 mm 5 mps 758 mmHg 45%
    15:00 +21°C° 0 mm 4 mps 758 mmHg 47%
    16:00 +21°C° 0 mm 4 mps 757 mmHg 50%
    17:00 +19°C° 0 mm 4 mps 757 mmHg 54%
    18:00 +17°C° 0 mm 4 mps 757 mmHg 59%
    19:00 +14°C° 0 mm 3 mps 756 mmHg 63%
    20:00 +14°C° 0 mm 3 mps 756 mmHg 63%
    21:00 +14°C° 0 mm 3 mps 756 mmHg 63%
    22:00 +14°C° 0 mm 3 mps 756 mmHg 63%
    23:00 +14°C° 0 mm 3 mps 756 mmHg 64%

    23 September, Monday

    Time Temperature Precipitation Wind Pressure Humidity
    00:00 +13°C° 0 mm 3 mps 755 mmHg 65%
    01:00 +13°C° 0 mm 3 mps 755 mmHg 66%
    02:00 +13°C° 0 mm 3 mps 755 mmHg 68%
    03:00 +13°C° 0 mm 3 mps 755 mmHg 69%
    04:00 +12°C° 0 mm 3 mps 754 mmHg 71%
    05:00 +13°C° 0 mm 3 mps 754 mmHg 72%
    06:00 +14°C° 0 mm 2 mps 754 mmHg 72%
    07:00 +14°C° 0 mm 2 mps 754 mmHg 73%
    08:00 +16°C° 0 mm 2 mps 754 mmHg 69%
    09:00 +18°C° 0 mm 1 mps 754 mmHg 65%
    10:00 +20°C° 0 mm 1 mps 754 mmHg 61%
    11:00 +21°C° 0 mm 1 mps 754 mmHg 61%
    12:00 +22°C° 0 mm 1 mps 753 mmHg 61%
    13:00 +21°C° 0 mm 2 mps 753 mmHg 61%
    14:00 +20°C° 0.1 mm 2 mps 753 mmHg 67%
    15:00 +19°C° 0.1 mm 2 mps 753 mmHg 72%
    16:00 +18°C° 0.1 mm 2 mps 753 mmHg 77%
    17:00 +17°C° 0.5 mm 2 mps 754 mmHg 82%
    18:00 +16°C° 0.5 mm 3 mps 754 mmHg 87%
    19:00 +14°C° 0.5 mm 3 mps 754 mmHg 92%
    20:00 +14°C° 0.2 mm 3 mps 754 mmHg 93%
    21:00 +14°C° 0.2 mm 3 mps 754 mmHg 93%
    22:00 +14°C° 0.2 mm 3 mps 754 mmHg 93%
    23:00 +14°C° 0.2 mm 3 mps 754 mmHg 93%
    Show more